Regional Weather Roundup
Issued by NWS Cleveland, OH

Home | Current Version | Previous Version | Text Only | Print | Product List | Glossary Off
Versions: 1 2 3 4 5 6 7 8 9 10 11 12 13 14 15 16 17 18 19 20 21 22 23 24 25 26 27 28 29 30 31 32 33 34 35 36 37 38 39 40 41 42 43 44 45 46 47 48 49 50

000
ASUS41 KCLE 282210
RWRCLE
OHIO REGIONAL WEATHER ROUNDUP
NATIONAL WEATHER SERVICE WILMINGTON, OH
600 PM EDT THU MAY 28 2015

NOTE: "FAIR" INDICATES FEW OR NO CLOUDS BELOW 12,000 FEET WITH NO
SIGNIFICANT WEATHER AND/OR OBSTRUCTIONS TO VISIBILITY.

OHZ001>008-015>018-024>027-034-035-043-044-282300-
   NORTHWEST OHIO

CITY           SKY/WX    TMP DP  RH WIND       PRES   REMARKS
DEFIANCE       MOSUNNY   81  54  39 E8        30.18F
FINDLAY        SUNNY     81  58  45 SE10      30.17F
TOLEDO EXPRESS SUNNY     77  55  46 E10       30.19F
TOLEDO EXEC    SUNNY     75  53  46 NE9       30.21F
LIMA           SUNNY     81  59  47 SE8       30.17F
$$

OHZ009>014-019>023-028>033-038-089-282300-
   NORTHEAST OHIO

CITY           SKY/WX    TMP DP  RH WIND       PRES   REMARKS
CLE-HOPKINS    MOSUNNY   75  57  53 N9        30.23F
CLE-LAKEFRONT  SUNNY     67  58  72 NE8       30.21F
CUY CO. ARPT   SUNNY     81  54  39 SE7       30.22F
LORAIN-ELYRIA  SUNNY     77  57  50 NE9       30.22S
ASHTABULA      SUNNY     75  55  49 NE6       30.24F
AKRON-CANTON   MOSUNNY   78  53  41 SE8       30.22F
WOOSTER        MOSUNNY   78  60  53 SE9       30.22F
MANSFIELD      MOSUNNY   77  59  53 E8        30.22S
YOUNGSTOWN     MOSUNNY   77  51  40 E5        30.23F
$$

OHZ042-051>053-060>062-070>072-077>081-282300-
  SOUTHWEST OHIO

CITY           SKY/WX    TMP DP  RH WIND       PRES   REMARKS
CINC-COVINGTON MOSUNNY   81  65  58 S7        30.16F
CINC-LUNKEN    MOSUNNY   81  66  60 S6        30.15F
HAMILTON       CLOUDY    83  64  52 E12       30.15F
DAYTON         MOSUNNY   83  60  45 S7        30.17F
WRIGHT-PAT AFB MOSUNNY   83  61  47 SE10      30.15F
DAYTON GENERAL SUNNY     82  62  50 S6        30.16S
WILMINGTON     SUNNY     79  60  52 S8        30.17S
$$

OHZ036-037-039>041-045>050-054>059-063>069-073>076-082>088-282300-
  CENTRAL AND SOUTHEAST OHIO

CITY           SKY/WX    TMP DP  RH WIND       PRES   REMARKS
COLUMBUS       MOSUNNY   81  61  50 SE10      30.17S
OSU AIRPORT    MOSUNNY   81  61  50 SE7       30.17F
BOLTON FIELD   MOSUNNY   81  63  54 SE7       30.18F
RICKENBACK AFB MOSUNNY   79  62  57 E7        30.17S
NEWARK         PTSUNNY   82  60  47 E7        30.18F
MARION         SUNNY     81  56  42 SE7       30.19F
LANCASTER      MOSUNNY   81  63  54 E7        30.18F
ZANESVILLE     SUNNY     81  58  45 NE3       30.19F
NEW PHILLY     SUNNY     82  59  45 E5        30.21F
$$



USA.gov is the U.S. government's official web portal to all federal, state and local government web resources and services.